,,,PA_Meas_PMT16A,,PR_Meas_QMR101_102,,RH_Meas_QMH101,,SR_Meas_QMS101,,TA_Meas_QMH101,,GenWind,,GenWind,
date,time,status,PA,status,PR,status,RH,status,SR,status,TA,status,DirAvg,status,SpdAvg,
2011-07-08, 00:00:04,VALID,1006.51,VALID,0,INVALID,163.8,VALID,0,VALID,23.3532,VALID,12,VALID,0,
2011-07-08, 00:01:04,VALID,1006.51,VALID,0,INVALID,163.838,VALID,0,VALID,23.3727,VALID,12,VALID,0,
2011-07-08, 00:02:04,VALID,1006.5,VALID,0,INVALID,163.807,VALID,0,VALID,23.3514,VALID,12,VALID,0,
2011-07-08, 00:03:04,VALID,1006.52,VALID,0,INVALID,163.792,VALID,0,VALID,23.3727,VALID,12,VALID,0,
2011-07-08, 00:04:04,VALID,1006.52,VALID,0,INVALID,163.8,VALID,0,VALID,23.3709,VALID,12,VALID,0,
2011-07-08, 00:05:04,VALID,1006.52,VALID,0,INVALID,163.83,VALID,0,VALID,23.3727,VALID,12,VALID,0,
2011-07-08, 00:06:04,VALID,1006.5,VALID,0,INVALID,163.792,VALID,0,VALID,23.3904,VALID,12,VALID,0,
2011-07-08, 00:07:04,VALID,1006.48,VALID,0,INVALID,163.807,VALID,0,VALID,23.4098,VALID,12,VALID,0,
2011-07-08, 00:08:04,VALID,1006.5,VALID,0,INVALID,163.815,VALID,0,VALID,23.4487,VALID,12,VALID,0,
2011-07-08, 00:09:04,VALID,1006.44,VALID,0,INVALID,163.777,VALID,0,VALID,23.4894,VALID,12,VALID,0,
2011-07-08, 00:10:04,VALID,1006.45,VALID,0,INVALID,163.792,VALID,0,VALID,23.4682,VALID,12,VALID,0,
2011-07-08, 00:11:04,VALID,1006.45,VALID,0,INVALID,163.792,VALID,0,VALID,23.4877,VALID,12,VALID,0,
2011-07-08, 00:12:04,VALID,1006.45,VALID,0,INVALID,163.815,VALID,0,VALID,23.4877,VALID,12,VALID,0,
2011-07-08, 00:13:04,VALID,1006.47,VALID,0,INVALID,163.807,VALID,0,VALID,23.4894,VALID,12,VALID,0,
2011-07-08, 00:14:04,VALID,1006.46,VALID,0,INVALID,163.807,VALID,0,VALID,23.4894,VALID,12,VALID,0,
2011-07-08, 00:15:04,VALID,1006.47,VALID,0,INVALID,163.815,VALID,0.100563,VALID,23.4877,VALID,12,VALID,0,
2011-07-08, 00:16:04,VALID,1006.48,VALID,0,INVALID,163.8,VALID,0,VALID,23.5071,VALID,12,VALID,0,
2011-07-08, 00:17:04,VALID,1006.42,VALID,0,INVALID,163.8,VALID,0.100563,VALID,23.5053,VALID,11,VALID,0,
2011-07-08, 00:18:04,VALID,1006.46,VALID,0,INVALID,163.784,VALID,0,VALID,23.5655,VALID,11,VALID,0,
2011-07-08, 00:19:04,VALID,1006.45,VALID,0,INVALID,163.8,VALID,0.100563,VALID,23.6044,VALID,11,VALID,0,
2011-07-08, 00:20:04,VALID,1006.47,VALID,0,INVALID,163.777,VALID,0.100563,VALID,23.6239,VALID,11,VALID,0,
2011-07-08, 00:21:04,VALID,1006.44,VALID,0,INVALID,163.792,VALID,0,VALID,23.6416,VALID,7,VALID,0,
2011-07-08, 00:22:04,VALID,1006.44,VALID,0,INVALID,163.777,VALID,0.100563,VALID,23.6628,VALID,7,VALID,0,
2011-07-08, 00:23:04,VALID,1006.47,VALID,0,INVALID,163.792,VALID,0,VALID,23.6416,VALID,2,VALID,0,
2011-07-08, 00:24:04,VALID,1006.45,VALID,0,INVALID,163.777,VALID,0,VALID,23.6628,VALID,2,VALID,0,
2011-07-08, 00:25:04,VALID,1006.47,VALID,0,INVALID,163.792,VALID,0,VALID,23.6416,VALID,1,VALID,0,
2011-07-08, 00:26:04,VALID,1006.46,VALID,0,INVALID,163.792,VALID,0.100563,VALID,23.6221,VALID,1,VALID,0,
2011-07-08, 00:27:04,VALID,1006.47,VALID,0,INVALID,163.777,VALID,0,VALID,23.6221,VALID,1,VALID,0,
2011-07-08, 00:28:04,VALID,1006.49,VALID,0,INVALID,163.769,VALID,0.100563,VALID,23.6628,VALID,1,VALID,0,
2011-07-08, 00:29:04,VALID,1006.5,VALID,0,INVALID,163.777,VALID,0.100563,VALID,23.6416,VALID,1,VALID,0,
2011-07-08, 00:30:04,VALID,1006.5,VALID,0,INVALID,163.769,VALID,0,VALID,23.6221,VALID,1,VALID,0,
2011-07-08, 00:31:04,VALID,1006.5,VALID,0,INVALID,163.777,VALID,0,VALID,23.6434,VALID,1,VALID,0,
2011-07-08, 00:32:04,VALID,1006.48,VALID,0,INVALID,163.777,VALID,0,VALID,23.6434,VALID,1,VALID,0,
2011-07-08, 00:33:04,VALID,1006.47,VALID,0,INVALID,163.807,VALID,0.100563,VALID,23.6221,VALID,1,VALID,0,
2011-07-08, 00:34:04,VALID,1006.51,VALID,0,INVALID,163.777,VALID,0,VALID,23.6434,VALID,1,VALID,0,
2011-07-08, 00:35:04,VALID,1006.5,VALID,0,INVALID,163.769,VALID,0,VALID,23.6221,VALID,1,VALID,0,
2011-07-08, 00:36:04,VALID,1006.49,VALID,0,INVALID,163.8,VALID,0,VALID,23.6239,VALID,1,VALID,0,
2011-07-08, 00:37:04,VALID,1006.49,VALID,0,INVALID,163.769,VALID,0.100563,VALID,23.6044,VALID,1,VALID,0,
2011-07-08, 00:38:04,VALID,1006.46,VALID,0,INVALID,163.8,VALID,0,VALID,23.6044,VALID,1,VALID,0,
2011-07-08, 00:39:04,VALID,1006.46,VALID,0,INVALID,163.8,VALID,0.100563,VALID,23.6044,VALID,1,VALID,0,
2011-07-08, 00:40:04,VALID,1006.41,VALID,0,INVALID,163.777,VALID,0,VALID,23.5637,VALID,1,VALID,0,
2011-07-08, 00:41:04,VALID,1006.41,VALID,0,INVALID,163.83,VALID,0.100563,VALID,23.5655,VALID,1,VALID,0,
2011-07-08, 00:42:04,VALID,1006.37,VALID,0,INVALID,163.807,VALID,0,VALID,23.5443,VALID,1,VALID,0,
2011-07-08, 00:43:04,VALID,1006.36,VALID,0,INVALID,163.777,VALID,0.100563,VALID,23.5637,VALID,1,VALID,0,
2011-07-08, 00:44:04,VALID,1006.37,VALID,0,INVALID,163.807,VALID,0,VALID,23.5655,VALID,1,VALID,0,
2011-07-08, 00:45:04,VALID,1006.33,VALID,0,INVALID,163.769,VALID,0.100563,VALID,23.5655,VALID,1,VALID,0,
2011-07-08, 00:46:04,VALID,1006.34,VALID,0,INVALID,163.807,VALID,0.100563,VALID,23.5655,VALID,1,VALID,0,
2011-07-08, 00:47:04,VALID,1006.36,VALID,0,INVALID,163.815,VALID,0,VALID,23.5637,VALID,1,VALID,0,
2011-07-08, 00:48:04,VALID,1006.37,VALID,0,INVALID,163.769,VALID,0,VALID,23.5832,VALID,1,VALID,0,
2011-07-08, 00:49:04,VALID,1006.37,VALID,0,INVALID,163.815,VALID,0,VALID,23.6026,VALID,1,VALID,0,
2011-07-08, 00:50:04,VALID,1006.37,VALID,0,INVALID,163.8,VALID,0,VALID,23.6026,VALID,1,VALID,0,
2011-07-08, 00:51:04,VALID,1006.36,VALID,0,INVALID,163.792,VALID,0,VALID,23.6026,VALID,1,VALID,0,
2011-07-08, 00:52:04,VALID,1006.37,VALID,0,INVALID,163.792,VALID,0,VALID,23.6026,VALID,1,VALID,0,
2011-07-08, 00:53:04,VALID,1006.37,VALID,0,INVALID,163.777,VALID,0.100563,VALID,23.6221,VALID,1,VALID,0,
2011-07-08, 00:54:04,VALID,1006.35,VALID,0,INVALID,163.769,VALID,0.100563,VALID,23.5832,VALID,1,VALID,0,
2011-07-08, 00:55:04,VALID,1006.34,VALID,0,INVALID,163.792,VALID,0.100563,VALID,23.6239,VALID,1,VALID,0,
2011-07-08, 00:56:04,VALID,1006.36,VALID,0,INVALID,163.784,VALID,0,VALID,23.6026,VALID,1,VALID,0,
2011-07-08, 00:57:04,VALID,1006.36,VALID,0,INVALID,163.777,VALID,0.100563,VALID,23.6026,VALID,1,VALID,0,
2011-07-08, 00:58:04,VALID,1006.36,VALID,0,INVALID,163.807,VALID,0,VALID,23.6239,VALID,1,VALID,0,
2011-07-08, 00:59:04,VALID,1006.37,VALID,0,INVALID,163.807,VALID,0,VALID,23.6026,VALID,1,VALID,0,
2011-07-08, 01:00:04,VALID,1006.39,VALID,0,INVALID,163.784,VALID,0,VALID,23.6026,VALID,1,VALID,0,
2011-07-08, 01:01:04,VALID,1006.4,VALID,0,INVALID,163.792,VALID,0.100563,VALID,23.6026,VALID,1,VALID,0,
2011-07-08, 01:02:04,VALID,1006.42,VALID,0,INVALID,163.784,VALID,0.100563,VALID,23.5637,VALID,1,VALID,0,
2011-07-08, 01:03:04,VALID,1006.41,VALID,0,INVALID,163.769,VALID,0.100563,VALID,23.5832,VALID,1,VALID,0,
2011-07-08, 01:04:04,VALID,1006.42,VALID,0,INVALID,163.8,VALID,0,VALID,23.6434,VALID,1,VALID,0,
2011-07-08, 01:05:04,VALID,1006.44,VALID,0,INVALID,163.762,VALID,0.100563,VALID,23.6628,VALID,1,VALID,0,
2011-07-08, 01:06:04,VALID,1006.42,VALID,0,INVALID,163.8,VALID,0.100563,VALID,23.6221,VALID,1,VALID,0,
2011-07-08, 01:07:04,VALID,1006.43,VALID,0,INVALID,163.784,VALID,0.100563,VALID,23.6434,VALID,1,VALID,0,
2011-07-08, 01:08:04,VALID,1006.43,VALID,0,INVALID,163.754,VALID,0,VALID,23.5832,VALID,1,VALID,0,
2011-07-08, 01:09:04,VALID,1006.41,VALID,0,INVALID,163.777,VALID,0.100563,VALID,23.6044,VALID,1,VALID,0,
2011-07-08, 01:10:04,VALID,1006.43,VALID,0,INVALID,163.754,VALID,0,VALID,23.5637,VALID,1,VALID,0,
2011-07-08, 01:11:04,VALID,1006.44,VALID,0,INVALID,163.815,VALID,0.100563,VALID,23.5248,VALID,1,VALID,0,
2011-07-08, 01:12:04,VALID,1006.42,VALID,0,INVALID,163.807,VALID,0.100563,VALID,23.5655,VALID,1,VALID,0,
2011-07-08, 01:13:04,VALID,1006.43,VALID,0,INVALID,163.792,VALID,0,VALID,23.5637,VALID,1,VALID,0,
2011-07-08, 01:14:04,VALID,1006.43,VALID,0,INVALID,163.8,VALID,0,VALID,23.5443,VALID,1,VALID,0,
2011-07-08, 01:15:04,VALID,1006.39,VALID,0,INVALID,163.8,VALID,0,VALID,23.5266,VALID,1,VALID,0,
2011-07-08, 01:16:04,VALID,1006.37,VALID,0,INVALID,163.815,VALID,0,VALID,23.5266,VALID,1,VALID,0,
2011-07-08, 01:17:04,VALID,1006.33,VALID,0,INVALID,163.792,VALID,0,VALID,23.5071,VALID,1,VALID,0,
2011-07-08, 01:18:04,VALID,1006.33,VALID,0,INVALID,163.777,VALID,0,VALID,23.5284,VALID,1,VALID,0,
2011-07-08, 01:19:04,VALID,1006.31,VALID,0,INVALID,163.807,VALID,0,VALID,23.5071,VALID,1,VALID,0,
2011-07-08, 01:20:04,VALID,1006.28,VALID,0,INVALID,163.8,VALID,0,VALID,23.5284,VALID,1,VALID,0,
2011-07-08, 01:21:04,VALID,1006.28,VALID,0,INVALID,163.8,VALID,0,VALID,23.4877,VALID,1,VALID,0,
2011-07-08, 01:22:04,VALID,1006.27,VALID,0,INVALID,163.807,VALID,0,VALID,23.4682,VALID,1,VALID,0,
2011-07-08, 01:23:04,VALID,1006.27,VALID,0,INVALID,163.792,VALID,0,VALID,23.47,VALID,1,VALID,0,
2011-07-08, 01:24:04,VALID,1006.25,VALID,0,INVALID,163.8,VALID,0,VALID,23.4505,VALID,1,VALID,0,
2011-07-08, 01:25:04,VALID,1006.24,VALID,0,INVALID,163.792,VALID,0,VALID,23.5107,VALID,1,VALID,0,
2011-07-08, 01:26:04,VALID,1006.22,VALID,0,INVALID,163.792,VALID,0,VALID,23.4877,VALID,1,VALID,0,
2011-07-08, 01:27:04,VALID,1006.21,VALID,0,INVALID,163.823,VALID,0,VALID,23.4877,VALID,1,VALID,0,
2011-07-08, 01:28:04,VALID,1006.2,VALID,0,INVALID,163.769,VALID,0,VALID,23.5071,VALID,1,VALID,0,
2011-07-08, 01:29:04,VALID,1006.2,VALID,0,INVALID,163.769,VALID,0,VALID,23.5266,VALID,1,VALID,0,
2011-07-08, 01:30:04,VALID,1006.18,VALID,0,INVALID,163.777,VALID,0,VALID,23.546,VALID,1,VALID,0,
2011-07-08, 01:31:04,VALID,1006.2,VALID,0,INVALID,163.815,VALID,0.100563,VALID,23.5443,VALID,1,VALID,0,
2011-07-08, 01:32:04,VALID,1006.19,VALID,0,INVALID,163.823,VALID,0.100563,VALID,23.5443,VALID,1,VALID,0,
2011-07-08, 01:33:04,VALID,1006.2,VALID,0,INVALID,163.792,VALID,0.100563,VALID,23.5655,VALID,1,VALID,0,
2011-07-08, 01:34:04,VALID,1006.23,VALID,0,INVALID,163.8,VALID,0.100563,VALID,23.5637,VALID,1,VALID,0,
2011-07-08, 01:35:04,VALID,1006.23,VALID,0,INVALID,163.807,VALID,0,VALID,23.5443,VALID,1,VALID,0,
2011-07-08, 01:36:04,VALID,1006.2,VALID,0,INVALID,163.792,VALID,0,VALID,23.5637,VALID,1,VALID,0,
2011-07-08, 01:37:04,VALID,1006.2,VALID,0,INVALID,163.784,VALID,0.100563,VALID,23.5637,VALID,1,VALID,0,
2011-07-08, 01:38:04,VALID,1006.21,VALID,0,INVALID,163.777,VALID,0.100563,VALID,23.585,VALID,1,VALID,0,
2011-07-08, 01:39:04,VALID,1006.19,VALID,0,INVALID,163.792,VALID,0.100563,VALID,23.5637,VALID,1,VALID,0,
2011-07-08, 01:40:04,VALID,1006.17,VALID,0,INVALID,163.807,VALID,0,VALID,23.6239,VALID,1,VALID,0,
2011-07-08, 01:41:04,VALID,1006.16,VALID,0,INVALID,163.777,VALID,0.100563,VALID,23.6221,VALID,1,VALID,0,
2011-07-08, 01:42:04,VALID,1006.14,VALID,0,INVALID,163.792,VALID,0,VALID,23.6628,VALID,1,VALID,0,
2011-07-08, 01:43:04,VALID,1006.11,VALID,0,INVALID,163.784,VALID,0,VALID,23.6823,VALID,1,VALID,0,
2011-07-08, 01:44:04,VALID,1006.14,VALID,0,INVALID,163.807,VALID,0.100563,VALID,23.6823,VALID,1,VALID,0,
2011-07-08, 01:45:04,VALID,1006.12,VALID,0,INVALID,163.792,VALID,0,VALID,23.6221,VALID,1,VALID,0,
2011-07-08, 01:46:04,VALID,1006.15,VALID,0,INVALID,163.823,VALID,0.100563,VALID,23.6416,VALID,1,VALID,0,
2011-07-08, 01:47:04,VALID,1006.14,VALID,0,INVALID,163.792,VALID,0.100563,VALID,23.6221,VALID,1,VALID,0,
2011-07-08, 01:48:04,VALID,1006.12,VALID,0,INVALID,163.792,VALID,0,VALID,23.6239,VALID,1,VALID,0,
2011-07-08, 01:49:04,VALID,1006.15,VALID,0,INVALID,163.792,VALID,0,VALID,23.6646,VALID,1,VALID,0,
2011-07-08, 01:50:04,VALID,1006.14,VALID,0,INVALID,163.769,VALID,0.100563,VALID,23.6434,VALID,1,VALID,0,
2011-07-08, 01:51:04,VALID,1006.14,VALID,0,INVALID,163.815,VALID,0,VALID,23.6026,VALID,1,VALID,0,
2011-07-08, 01:52:04,VALID,1006.17,VALID,0,INVALID,163.792,VALID,0,VALID,23.6044,VALID,1,VALID,0,
2011-07-08, 01:53:04,VALID,1006.16,VALID,0,INVALID,163.807,VALID,0.100563,VALID,23.6044,VALID,1,VALID,0,
2011-07-08, 01:54:04,VALID,1006.15,VALID,0,INVALID,163.784,VALID,0,VALID,23.6239,VALID,1,VALID,0,
2011-07-08, 01:55:04,VALID,1006.13,VALID,0,INVALID,163.807,VALID,0.100563,VALID,23.6221,VALID,1,VALID,0,
2011-07-08, 01:56:04,VALID,1006.11,VALID,0,INVALID,163.792,VALID,0,VALID,23.661,VALID,1,VALID,0,
2011-07-08, 01:57:04,VALID,1006.14,VALID,0,INVALID,163.792,VALID,0.100563,VALID,23.6805,VALID,1,VALID,0,
2011-07-08, 01:58:04,VALID,1006.12,VALID,0,INVALID,163.792,VALID,0,VALID,23.7,VALID,1,VALID,0,
2011-07-08, 01:59:04,VALID,1006.11,VALID,0,INVALID,163.784,VALID,0.100563,VALID,23.7389,VALID,1,VALID,0,
2011-07-08, 02:00:04,VALID,1006.1,VALID,0,INVALID,163.769,VALID,0,VALID,23.7407,VALID,1,VALID,0,
2011-07-08, 02:01:04,VALID,1006.06,VALID,0,INVALID,163.8,VALID,0,VALID,23.7,VALID,1,VALID,0,
2011-07-08, 02:02:04,VALID,1006.11,VALID,0,INVALID,163.784,VALID,0,VALID,23.7425,VALID,1,VALID,0,
2011-07-08, 02:03:04,VALID,1006.09,VALID,0,INVALID,163.784,VALID,0,VALID,23.7035,VALID,1,VALID,0,
2011-07-08, 02:04:04,VALID,1006.1,VALID,0,INVALID,163.769,VALID,0,VALID,23.6823,VALID,1,VALID,0,
2011-07-08, 02:05:04,VALID,1006.09,VALID,0,INVALID,163.784,VALID,0,VALID,23.6646,VALID,1,VALID,0,
2011-07-08, 02:06:04,VALID,1006.06,VALID,0,INVALID,163.777,VALID,0,VALID,23.6452,VALID,1,VALID,0,
2011-07-08, 02:07:04,VALID,1006.07,VALID,0,INVALID,163.792,VALID,0,VALID,23.6257,VALID,1,VALID,0,
2011-07-08, 02:08:04,VALID,1006.05,VALID,0,INVALID,163.777,VALID,0,VALID,23.585,VALID,1,VALID,0,
2011-07-08, 02:09:04,VALID,1006.07,VALID,0,INVALID,163.815,VALID,0,VALID,23.585,VALID,1,VALID,0,
2011-07-08, 02:10:04,VALID,1006.02,VALID,0,INVALID,163.792,VALID,0,VALID,23.585,VALID,1,VALID,0,
2011-07-08, 02:11:04,VALID,1006.04,VALID,0,INVALID,163.777,VALID,0,VALID,23.5655,VALID,1,VALID,0,
2011-07-08, 02:12:04,VALID,1006.03,VALID,0,INVALID,163.8,VALID,0,VALID,23.5655,VALID,1,VALID,0,
2011-07-08, 02:13:04,VALID,1006.01,VALID,0,INVALID,163.815,VALID,0,VALID,23.5655,VALID,1,VALID,0,
2011-07-08, 02:14:04,VALID,1006.01,VALID,0,INVALID,163.784,VALID,0,VALID,23.585,VALID,1,VALID,0,
2011-07-08, 02:15:04,VALID,1005.99,VALID,0,INVALID,163.792,VALID,0,VALID,23.6044,VALID,1,VALID,0,
2011-07-08, 02:16:04,VALID,1005.98,VALID,0,INVALID,163.792,VALID,0.100563,VALID,23.5637,VALID,1,VALID,0,
2011-07-08, 02:17:04,VALID,1005.98,VALID,0,INVALID,163.823,VALID,0,VALID,23.5637,VALID,1,VALID,0,
2011-07-08, 02:18:05,VALID,1006.01,VALID,0,INVALID,163.777,VALID,0,VALID,23.585,VALID,1,VALID,0,
2011-07-08, 02:19:05,VALID,1006.01,VALID,0,INVALID,163.83,VALID,0,VALID,23.585,VALID,1,VALID,0,
2011-07-08, 02:20:05,VALID,1006.05,VALID,0,INVALID,163.769,VALID,0.100563,VALID,23.5637,VALID,1,VALID,0,
2011-07-08, 02:21:05,VALID,1006.04,VALID,0,INVALID,163.784,VALID,0.100563,VALID,23.585,VALID,1,VALID,0,
2011-07-08, 02:22:05,VALID,1006.07,VALID,0,INVALID,163.807,VALID,0,VALID,23.5637,VALID,1,VALID,0,
2011-07-08, 02:23:05,VALID,1006.07,VALID,0,INVALID,163.777,VALID,0.100563,VALID,23.5655,VALID,1,VALID,0,
2011-07-08, 02:24:05,VALID,1006.08,VALID,0,INVALID,163.784,VALID,0.100563,VALID,23.5637,VALID,1,VALID,0,
2011-07-08, 02:25:05,VALID,1006.12,VALID,0,INVALID,163.807,VALID,0,VALID,23.5832,VALID,1,VALID,0,
2011-07-08, 02:26:05,VALID,1006.1,VALID,0,INVALID,163.777,VALID,0,VALID,23.6026,VALID,1,VALID,0,
2011-07-08, 02:27:05,VALID,1006.11,VALID,0,INVALID,163.8,VALID,0,VALID,23.6239,VALID,1,VALID,0,
2011-07-08, 02:28:05,VALID,1006.12,VALID,0,INVALID,163.784,VALID,0.100563,VALID,23.6026,VALID,1,VALID,0,
2011-07-08, 02:29:05,VALID,1006.1,VALID,0,INVALID,163.792,VALID,0,VALID,23.6239,VALID,1,VALID,0,
2011-07-08, 02:30:05,VALID,1006.1,VALID,0,INVALID,163.784,VALID,0,VALID,23.6239,VALID,1,VALID,0,
2011-07-08, 02:31:05,VALID,1006.06,VALID,0,INVALID,163.769,VALID,0.100563,VALID,23.6221,VALID,1,VALID,0,
2011-07-08, 02:32:05,VALID,1006.04,VALID,0,INVALID,163.769,VALID,0,VALID,23.6239,VALID,1,VALID,0,
2011-07-08, 02:33:05,VALID,1006.02,VALID,0,INVALID,163.8,VALID,0,VALID,23.6221,VALID,1,VALID,0,
2011-07-08, 02:34:05,VALID,1006,VALID,0,INVALID,163.8,VALID,0,VALID,23.6221,VALID,1,VALID,0,
2011-07-08, 02:35:05,VALID,1005.96,VALID,0,INVALID,163.8,VALID,0.100563,VALID,23.6239,VALID,1,VALID,0,
2011-07-08, 02:36:05,VALID,1005.97,VALID,0,INVALID,163.762,VALID,0,VALID,23.585,VALID,1,VALID,0,
2011-07-08, 02:37:05,VALID,1005.96,VALID,0,INVALID,163.769,VALID,0,VALID,23.5655,VALID,1,VALID,0,
2011-07-08, 02:38:05,VALID,1005.95,VALID,0,INVALID,163.792,VALID,0.100563,VALID,23.5637,VALID,1,VALID,0,
2011-07-08, 02:39:05,VALID,1005.93,VALID,0,INVALID,163.784,VALID,0,VALID,23.5655,VALID,1,VALID,0,
2011-07-08, 02:40:05,VALID,1005.94,VALID,0,INVALID,163.8,VALID,0,VALID,23.5655,VALID,1,VALID,0,
2011-07-08, 02:41:05,VALID,1005.94,VALID,0,INVALID,163.792,VALID,0.100563,VALID,23.5637,VALID,1,VALID,0,
2011-07-08, 02:42:05,VALID,1005.92,VALID,0,INVALID,163.784,VALID,0,VALID,23.546,VALID,1,VALID,0,
2011-07-08, 02:43:05,VALID,1005.94,VALID,0,INVALID,163.807,VALID,0,VALID,23.5248,VALID,1,VALID,0,
2011-07-08, 02:44:05,VALID,1005.93,VALID,0,INVALID,163.807,VALID,0,VALID,23.5248,VALID,1,VALID,0,
2011-07-08, 02:45:05,VALID,1005.93,VALID,0,INVALID,163.8,VALID,0,VALID,23.5053,VALID,1,VALID,0,
2011-07-08, 02:46:05,VALID,1005.93,VALID,0,INVALID,163.777,VALID,0,VALID,23.5053,VALID,1,VALID,0,
2011-07-08, 02:47:05,VALID,1005.91,VALID,0,INVALID,163.792,VALID,0.100563,VALID,23.4841,VALID,1,VALID,0,
2011-07-08, 02:48:05,VALID,1005.89,VALID,0,INVALID,163.777,VALID,0.100563,VALID,23.5266,VALID,1,VALID,0,
2011-07-08, 02:49:05,VALID,1005.89,VALID,0,INVALID,163.823,VALID,0.100563,VALID,23.5053,VALID,1,VALID,0,
2011-07-08, 02:50:05,VALID,1005.89,VALID,0,INVALID,163.8,VALID,0,VALID,23.4841,VALID,1,VALID,0,
2011-07-08, 02:51:05,VALID,1005.86,VALID,0,INVALID,163.792,VALID,0,VALID,23.5071,VALID,1,VALID,0,
2011-07-08, 02:52:05,VALID,1005.85,VALID,0,INVALID,163.792,VALID,0,VALID,23.5266,VALID,1,VALID,0,
2011-07-08, 02:53:05,VALID,1005.86,VALID,0,INVALID,163.784,VALID,0,VALID,23.546,VALID,1,VALID,0,
2011-07-08, 02:54:05,VALID,1005.83,VALID,0,INVALID,163.769,VALID,0,VALID,23.5053,VALID,1,VALID,0,
2011-07-08, 02:55:05,VALID,1005.86,VALID,0,INVALID,163.792,VALID,0.100563,VALID,23.5266,VALID,1,VALID,0,
2011-07-08, 02:56:05,VALID,1005.83,VALID,0,INVALID,163.807,VALID,0,VALID,23.5248,VALID,1,VALID,0,
2011-07-08, 02:57:05,VALID,1005.8,VALID,0,INVALID,163.807,VALID,0.100563,VALID,23.546,VALID,1,VALID,0,
2011-07-08, 02:58:05,VALID,1005.78,VALID,0,INVALID,163.8,VALID,0.100563,VALID,23.5248,VALID,1,VALID,0,
2011-07-08, 02:59:05,VALID,1005.8,VALID,0,INVALID,163.792,VALID,0.100563,VALID,23.5248,VALID,1,VALID,0,
2011-07-08, 03:00:05,VALID,1005.79,VALID,0,INVALID,163.792,VALID,0,VALID,23.5284,VALID,1,VALID,0,
2011-07-08, 03:01:05,VALID,1005.84,VALID,0,INVALID,163.8,VALID,0,VALID,23.5478,VALID,1,VALID,0,
2011-07-08, 03:02:05,VALID,1005.88,VALID,0,INVALID,163.769,VALID,0,VALID,23.5478,VALID,1,VALID,0,
2011-07-08, 03:03:05,VALID,1005.91,VALID,0,INVALID,163.769,VALID,0,VALID,23.5673,VALID,1,VALID,0,
2011-07-08, 03:04:05,VALID,1005.91,VALID,0,INVALID,163.777,VALID,0,VALID,23.5868,VALID,1,VALID,0,
2011-07-08, 03:05:05,VALID,1005.89,VALID,0,INVALID,163.777,VALID,0,VALID,23.6062,VALID,1,VALID,0,
2011-07-08, 03:06:05,VALID,1005.89,VALID,0,INVALID,163.807,VALID,0,VALID,23.585,VALID,1,VALID,0,
2011-07-08, 03:07:05,VALID,1005.9,VALID,0,INVALID,163.769,VALID,0,VALID,23.6257,VALID,1,VALID,0,
2011-07-08, 03:08:05,VALID,1005.87,VALID,0,INVALID,163.792,VALID,0,VALID,23.6257,VALID,1,VALID,0,
2011-07-08, 03:09:05,VALID,1005.86,VALID,0,INVALID,163.807,VALID,0,VALID,23.585,VALID,1,VALID,0,
2011-07-08, 03:10:05,VALID,1005.83,VALID,0,INVALID,163.784,VALID,0,VALID,23.585,VALID,1,VALID,0,
2011-07-08, 03:11:05,VALID,1005.84,VALID,0,INVALID,163.784,VALID,0,VALID,23.5637,VALID,1,VALID,0,
2011-07-08, 03:12:05,VALID,1005.82,VALID,0,INVALID,163.784,VALID,0,VALID,23.5655,VALID,1,VALID,0,
2011-07-08, 03:13:05,VALID,1005.84,VALID,0,INVALID,163.8,VALID,0,VALID,23.6062,VALID,1,VALID,0,
2011-07-08, 03:14:05,VALID,1005.82,VALID,0,INVALID,163.807,VALID,0,VALID,23.6257,VALID,1,VALID,0,
2011-07-08, 03:15:05,VALID,1005.84,VALID,0,INVALID,163.807,VALID,0,VALID,23.585,VALID,1,VALID,0,
2011-07-08, 03:16:05,VALID,1005.88,VALID,0,INVALID,163.784,VALID,0,VALID,23.6062,VALID,1,VALID,0,
2011-07-08, 03:17:05,VALID,1005.85,VALID,0,INVALID,163.777,VALID,0,VALID,23.5655,VALID,1,VALID,0,
2011-07-08, 03:18:05,VALID,1005.88,VALID,0,INVALID,163.792,VALID,0,VALID,23.546,VALID,1,VALID,0,
2011-07-08, 03:19:05,VALID,1005.85,VALID,0,INVALID,163.784,VALID,0,VALID,23.546,VALID,1,VALID,0,
2011-07-08, 03:20:05,VALID,1005.87,VALID,0,INVALID,163.792,VALID,0,VALID,23.5478,VALID,1,VALID,0,
2011-07-08, 03:21:05,VALID,1005.88,VALID,0,INVALID,163.807,VALID,0,VALID,23.5266,VALID,1,VALID,0,
2011-07-08, 03:22:05,VALID,1005.86,VALID,0,INVALID,163.777,VALID,0,VALID,23.5266,VALID,1,VALID,0,
2011-07-08, 03:23:05,VALID,1005.89,VALID,0,INVALID,163.784,VALID,0,VALID,23.5284,VALID,1,VALID,0,
2011-07-08, 03:24:05,VALID,1005.87,VALID,0,INVALID,163.792,VALID,0,VALID,23.5284,VALID,1,VALID,0,
2011-07-08, 03:25:05,VALID,1005.89,VALID,0,INVALID,163.807,VALID,0,VALID,23.5089,VALID,1,VALID,0,
2011-07-08, 03:26:05,VALID,1005.87,VALID,0,INVALID,163.8,VALID,0,VALID,23.5089,VALID,1,VALID,0,
2011-07-08, 03:27:05,VALID,1005.85,VALID,0,INVALID,163.777,VALID,0,VALID,23.5089,VALID,1,VALID,0,
2011-07-08, 03:28:05,VALID,1005.87,VALID,0,INVALID,163.769,VALID,0,VALID,23.5089,VALID,1,VALID,0,
2011-07-08, 03:29:05,VALID,1005.86,VALID,0,INVALID,163.777,VALID,0,VALID,23.5284,VALID,1,VALID,0,
2011-07-08, 03:30:05,VALID,1005.89,VALID,0,INVALID,163.8,VALID,0,VALID,23.4877,VALID,1,VALID,0,
2011-07-08, 03:31:05,VALID,1005.87,VALID,0,INVALID,163.777,VALID,0,VALID,23.4682,VALID,1,VALID,0,
2011-07-08, 03:32:05,VALID,1005.88,VALID,0,INVALID,163.784,VALID,0,VALID,23.4682,VALID,1,VALID,0,
2011-07-08, 03:33:05,VALID,1005.87,VALID,0,INVALID,163.807,VALID,0,VALID,23.4682,VALID,1,VALID,0,
2011-07-08, 03:34:05,VALID,1005.85,VALID,0,INVALID,163.8,VALID,0,VALID,23.4894,VALID,1,VALID,0,
2011-07-08, 03:35:05,VALID,1005.82,VALID,0,INVALID,163.8,VALID,0,VALID,23.4682,VALID,1,VALID,0,
2011-07-08, 03:36:05,VALID,1005.81,VALID,0,INVALID,163.815,VALID,0,VALID,23.4505,VALID,1,VALID,0,
2011-07-08, 03:37:05,VALID,1005.79,VALID,0,INVALID,163.815,VALID,0,VALID,23.47,VALID,1,VALID,0,
2011-07-08, 03:38:05,VALID,1005.79,VALID,0,INVALID,163.8,VALID,0,VALID,23.47,VALID,1,VALID,0,
2011-07-08, 03:39:05,VALID,1005.79,VALID,0,INVALID,163.784,VALID,0,VALID,23.4311,VALID,1,VALID,0,
2011-07-08, 03:40:05,VALID,1005.81,VALID,0,INVALID,163.815,VALID,0,VALID,23.3921,VALID,1,VALID,0,
2011-07-08, 03:41:05,VALID,1005.8,VALID,0,INVALID,163.8,VALID,0,VALID,23.3921,VALID,1,VALID,0,
2011-07-08, 03:42:05,VALID,1005.81,VALID,0,INVALID,163.838,VALID,0,VALID,23.3727,VALID,1,VALID,0,
2011-07-08, 03:43:05,VALID,1005.81,VALID,0,INVALID,163.792,VALID,0,VALID,23.3727,VALID,1,VALID,0,
2011-07-08, 03:44:05,VALID,1005.82,VALID,0,INVALID,163.8,VALID,0,VALID,23.3709,VALID,1,VALID,0,
2011-07-08, 03:45:05,VALID,1005.81,VALID,0,INVALID,163.807,VALID,0,VALID,23.3709,VALID,1,VALID,0,
2011-07-08, 03:46:05,VALID,1005.78,VALID,0,INVALID,163.807,VALID,0,VALID,23.3514,VALID,1,VALID,0,
2011-07-08, 03:47:05,VALID,1005.76,VALID,0,INVALID,163.823,VALID,0,VALID,23.3532,VALID,1,VALID,0,
2011-07-08, 03:48:05,VALID,1005.8,VALID,0,INVALID,163.823,VALID,0,VALID,23.332,VALID,1,VALID,0,
2011-07-08, 03:49:05,VALID,1005.74,VALID,0,INVALID,163.815,VALID,0,VALID,23.3514,VALID,1,VALID,0,
2011-07-08, 03:50:05,VALID,1005.76,VALID,0,INVALID,163.83,VALID,0,VALID,23.3904,VALID,1,VALID,0,
2011-07-08, 03:51:05,VALID,1005.75,VALID,0,INVALID,163.815,VALID,0,VALID,23.4311,VALID,1,VALID,0,
2011-07-08, 03:52:05,VALID,1005.72,VALID,0,INVALID,163.815,VALID,0,VALID,23.4505,VALID,1,VALID,0,
2011-07-08, 03:53:05,VALID,1005.7,VALID,0,INVALID,163.807,VALID,0,VALID,23.4098,VALID,1,VALID,0,
2011-07-08, 03:54:05,VALID,1005.7,VALID,0,INVALID,163.807,VALID,0,VALID,23.3709,VALID,1,VALID,0,
2011-07-08, 03:55:05,VALID,1005.7,VALID,0,INVALID,163.807,VALID,0,VALID,23.332,VALID,1,VALID,0,
2011-07-08, 03:56:05,VALID,1005.73,VALID,0,INVALID,163.807,VALID,0,VALID,23.3125,VALID,1,VALID,0,